1486353600.38,36158,9.75,72502.5,-8.35,-35.53,-34.89,0,*51
1486353601.63,36159,9.75,72504.8,-8.35,-35.41,-34.89,0,*53
1486353602.9,36160,9.75,72502.8,-8.35,-35.41,-34.83,0,*53
1486353604.17,36161,9.75,72504.0,-8.37,-35.23,-34.65,0,*5C
1486353605.43,36162,9.75,72500.0,-8.35,-35.23,-34.71,0,*58
1486353606.63,36163,9.75,72502.3,-8.33,-35.13,-34.59,0,*56
1486353607.84,36164,9.75,72500.8,-8.33,-35.13,-34.47,0,*5E
1486353609.05,36165,9.75,72500.0,-8.33,-35.13,-34.47,0,*5F
1486353610.25,36166,9.75,72502.0,-8.33,-35.13,-34.59,0,*53
1486353611.46,36167,9.75,72500.8,-8.33,-35.17,-34.59,0,*56
1486353612.66,36168,9.75,72502.5,-8.29,-35.17,-34.59,0,*52
1486353613.9,36169,9.75,72500.8,-8.33,-35.17,-34.65,0,*57
1486353615.11,36170,9.75,72502.8,-8.29,-35.17,-34.77,0,*57
1486353616.34,36171,9.75,72500.5,-8.29,-35.35,-34.77,0,*56
1486353617.58,36172,9.75,72506.5,-8.29,-35.35,-34.77,0,*55
1486353618.84,36173,9.75,72500.5,-8.29,-35.35,-34.95,0,*58
1486353620.07,36174,9.75,72506.3,-8.29,-35.29,-34.83,0,*55
1486353621.31,36175,9.75,72496.8,-8.29,-35.47,-34.95,0,*5B
1486353622.52,36176,9.75,72498.0,-8.29,-35.47,-35.01,0,*54
1486353623.74,36177,9.75,72492.8,-8.29,-35.71,-35.13,0,*53
1486353624.95,36178,9.75,72494.0,-8.29,-35.71,-35.13,0,*5C
1486353626.2,36179,9.75,72494.0,-8.27,-35.65,-35.13,0,*56
1486353627.46,36180,9.75,72490.8,-8.27,-35.89,-35.41,0,*55
1486353628.68,36181,9.75,72492.5,-8.29,-35.77,-35.29,0,*55
1486353629.88,36182,9.75,72492.0,-8.29,-35.59,-35.17,0,*57
1486353631.14,36183,9.75,72492.5,-8.27,-35.47,-35.07,0,*56
1486353632.35,36184,9.75,72490.0,-8.29,-35.71,-35.29,0,*56
1486353633.56,36185,9.75,72496.0,-8.29,-35.59,-35.13,0,*54
1486353634.77,36186,9.75,72498.8,-8.29,-35.71,-35.13,0,*5D
1486353636.0,36187,9.75,72494.8,-8.29,-35.53,-35.13,0,*5C
1486353637.21,36188,9.75,72494.8,-8.29,-35.71,-35.17,0,*57
1486353638.42,36189,9.75,72496.8,-8.33,-35.71,-35.29,0,*50
1486353639.64,36190,9.75,72492.3,-8.29,-35.47,-35.01,0,*5C
1486353640.88,36191,9.75,72492.0,-8.29,-35.47,-34.95,0,*51
1486353642.14,36192,9.75,72488.0,-8.29,-35.35,-34.95,0,*57
1486353643.35,36193,9.75,72494.5,-8.33,-35.29,-34.77,0,*5C
1486353644.58,36194,9.75,72494.5,-8.27,-35.29,-34.77,0,*5E
1486353645.82,36195,9.75,72492.0,-8.27,-35.29,-34.77,0,*5F
1486353647.05,36196,9.75,72490.3,-8.27,-35.29,-34.71,0,*5A
1486353648.3,36197,9.75,72490.5,-8.27,-35.23,-34.77,0,*57
1486353649.51,36198,9.75,72490.3,-8.25,-35.29,-34.89,0,*51
1486353650.79,36199,9.75,72492.5,-8.27,-35.53,-34.95,0,*52
1486353652.04,36200,9.75,72490.3,-8.27,-35.65,-35.13,0,*5B
1486353653.27,36201,9.75,72490.3,-8.25,-35.65,-35.29,0,*51
1486353654.52,36202,9.75,72488.3,-8.27,-35.71,-35.23,0,*5F
1486353655.79,36203,9.75,72486.5,-8.27,-35.65,-35.23,0,*5B
1486353657.04,36204,9.75,72494.0,-8.25,-35.65,-35.23,0,*5E
1486353658.28,36205,9.75,72494.5,-8.27,-35.89,-35.29,0,*55
1486353659.51,36206,9.75,72496.5,-8.27,-35.71,-35.13,0,*58
1486353660.76,36207,9.75,72496.3,-8.27,-35.71,-35.23,0,*5A
1486353662.0,36208,9.75,72498.8,-8.25,-35.89,-35.41,0,*54
1486353663.26,36209,9.75,72492.3,-8.27,-35.89,-35.41,0,*57
1486353664.49,36210,9.75,72496.5,-8.27,-35.71,-35.29,0,*56
1486353665.75,36211,9.75,72494.5,-8.27,-35.83,-35.29,0,*5A
1486353667.03,36212,9.75,72500.5,-8.27,-35.83,-35.23,0,*53
1486353668.29,36213,9.75,72498.3,-8.27,-36.01,-35.41,0,*5F
1486353669.55,36214,9.75,72496.5,-8.27,-36.01,-35.41,0,*58
1486353670.78,36215,9.75,72500.8,-8.27,-36.07,-35.47,0,*59
1486353672.02,36216,9.75,72500.3,-8.25,-36.01,-35.53,0,*5B
1486353673.26,36217,9.75,72500.3,-8.29,-36.25,-35.59,0,*5A
1486353674.52,36218,9.75,72500.3,-8.29,-35.95,-35.53,0,*57
1486353675.76,36219,9.75,72502.8,-8.29,-35.95,-35.47,0,*53
1486353677.0,36220,9.75,72502.8,-8.29,-36.07,-35.53,0,*54
1486353678.24,36221,9.75,72506.0,-8.29,-36.07,-35.53,0,*55
1486353679.48,36222,9.75,72502.5,-8.29,-35.95,-35.47,0,*5B
1486353680.75,36223,9.75,72500.5,-8.29,-35.95,-35.35,0,*5F
1486353681.99,36224,9.75,72502.8,-8.29,-35.77,-35.35,0,*54
1486353683.19,36225,9.75,72504.0,-8.29,-35.71,-35.17,0,*53
1486353684.4,36226,9.75,72504.0,-8.29,-35.59,-35.17,0,*5A
1486353685.61,36227,9.75,72502.3,-8.29,-35.59,-35.01,0,*5C
1486353686.83,36228,9.75,72502.5,-8.29,-35.47,-35.01,0,*5C
1486353688.06,36229,9.75,72500.3,-8.29,-35.35,-35.01,0,*58
1486353689.33,36230,9.75,72502.0,-8.27,-35.53,-35.07,0,*58
1486353690.55,36231,9.75,72502.8,-8.29,-35.47,-35.01,0,*54
1486353691.79,36232,9.75,72500.5,-8.29,-35.29,-34.95,0,*53
1486353693.04,36233,9.75,72496.8,-8.29,-35.35,-34.83,0,*58
1486353694.28,36234,9.75,72500.0,-8.27,-35.29,-34.77,0,*57
1486353695.54,36235,9.75,72500.3,-8.27,-35.47,-34.95,0,*52
1486353696.81,36236,9.75,72498.8,-8.27,-35.41,-34.95,0,*57
1486353698.06,36237,9.75,72498.3,-8.27,-35.41,-34.89,0,*5B
1486353699.32,36238,9.75,72496.3,-8.27,-35.47,-34.95,0,*5F
1486353700.57,36239,9.75,72492.8,-8.27,-35.23,-34.89,0,*51
1486353701.8,36240,9.75,72494.0,-8.25,-35.23,-34.59,0,*50
1486353703.03,36241,9.75,72496.0,-8.25,-35.23,-34.71,0,*5B
1486353704.24,36242,9.75,72494.8,-8.25,-35.29,-34.77,0,*54
1486353705.45,36243,9.75,72498.5,-8.25,-35.29,-34.89,0,*54
1486353706.68,36244,9.75,72496.5,-8.25,-35.23,-34.77,0,*58
1486353707.91,36245,9.75,72498.3,-8.25,-35.23,-34.71,0,*5F
1486353709.21,36246,9.75,72496.0,-8.23,-35.07,-34.65,0,*59
1486353710.5,36247,9.75,72496.8,-8.23,-35.07,-34.65,0,*58
1486353711.74,36248,9.75,72496.0,-8.21,-35.01,-34.53,0,*56
1486353712.98,36249,9.75,72498.3,-8.21,-35.01,-34.53,0,*57
1486353714.23,36250,9.75,72496.8,-8.21,-35.01,-34.53,0,*5F
1486353715.47,36251,9.75,72500.3,-8.21,-35.01,-34.53,0,*5E
1486353716.71,36252,9.75,72498.8,-8.21,-35.07,-34.71,0,*5B
1486353717.92,36253,9.75,72500.0,-8.21,-35.17,-34.71,0,*5B
1486353719.16,36254,9.75,72500.0,-8.21,-35.07,-34.71,0,*5D
1486353720.41,36255,9.75,72504.0,-8.21,-35.35,-34.83,0,*50
1486353721.64,36256,9.75,72502.3,-8.21,-35.41,-34.89,0,*5A
1486353722.86,36257,9.75,72500.8,-8.21,-35.41,-34.89,0,*5B
1486353724.12,36258,9.75,72502.3,-8.21,-35.35,-34.83,0,*5D
1486353725.36,36259,9.75,72506.5,-8.21,-34.83,-34.47,0,*58
1486353726.58,36260,9.75,72500.0,-8.21,-34.71,-34.47,0,*5F
1486353727.85,36261,9.75,72500.0,-8.19,-35.01,-34.65,0,*53
1486353729.08,36262,9.75,72498.5,-8.19,-35.13,-34.77,0,*50
1486353730.33,36263,9.75,72498.5,-8.19,-35.17,-34.83,0,*5E
1486353731.61,36264,9.75,72494.5,-8.19,-35.35,-34.95,0,*5E
1486353732.85,36265,9.75,72492.3,-8.17,-35.41,-35.01,0,*5E
1486353734.08,36266,9.75,72494.3,-8.17,-35.41,-35.01,0,*5D
1486353735.31,36267,9.75,72492.5,-8.17,-35.41,-35.01,0,*5C
1486353736.54,36268,9.75,72492.3,-8.17,-35.41,-35.13,0,*50
1486353737.76,36269,9.75,72492.3,-8.17,-35.53,-35.17,0,*56
1486353738.98,36270,9.75,72492.5,-8.17,-35.53,-35.17,0,*5E
1486353740.25,36271,9.75,72486.3,-8.17,-35.95,-35.53,0,*55
1486353741.51,36272,9.75,72492.0,-8.17,-35.95,-35.41,0,*55
1486353742.8,36273,9.75,72496.8,-8.19,-35.95,-35.41,0,*5A
1486353744.06,36274,9.75,72496.3,-8.17,-35.95,-35.53,0,*50
1486353745.32,36275,9.75,72496.8,-8.17,-35.95,-35.41,0,*52
1486353746.56,36276,9.75,72502.3,-8.17,-35.89,-35.53,0,*5F
1486353747.84,36277,9.75,72498.3,-8.19,-35.95,-35.41,0,*5E
1486353749.1,36278,9.75,72496.0,-8.19,-35.59,-35.35,0,*52
1486353750.33,36279,9.75,72498.0,-8.17,-35.77,-35.41,0,*52
1486353751.57,36280,9.75,72500.0,-8.19,-35.77,-35.29,0,*54
1486353752.83,36281,9.75,72498.3,-8.19,-35.71,-35.35,0,*5E
1486353754.1,36282,9.75,72498.0,-8.21,-35.95,-35.41,0,*5F
1486353755.34,36283,9.75,72500.3,-8.21,-36.13,-35.77,0,*56
1486353756.6,36284,9.75,72498.3,-8.23,-36.13,-35.77,0,*53
1486353757.84,36285,9.75,72498.8,-8.21,-36.13,-35.77,0,*50
1486353759.07,36286,9.75,72496.0,-8.21,-36.01,-35.65,0,*53
1486353760.28,36287,9.75,72496.8,-8.21,-36.01,-35.59,0,*5D
1486353761.54,36288,9.75,72494.3,-8.21,-36.13,-35.65,0,*5E
1486353762.78,36289,9.75,72496.8,-8.21,-35.83,-35.47,0,*55
1486353764.05,36290,9.75,72498.3,-8.21,-35.95,-35.41,0,*5C
1486353765.28,36291,9.75,72498.0,-8.21,-35.77,-35.35,0,*52
1486353766.52,36292,9.75,72496.8,-8.23,-36.01,-35.59,0,*5B
1486353767.75,36293,9.75,72496.0,-8.21,-36.01,-35.65,0,*57
1486353769.01,36294,9.75,72502.3,-8.21,-36.13,-35.65,0,*53
1486353770.27,36295,9.75,72496.3,-8.23,-35.95,-35.59,0,*52
1486353771.51,36296,9.75,72498.3,-8.21,-36.13,-35.77,0,*52
1486353772.74,36297,9.75,72496.8,-8.21,-36.13,-35.59,0,*5F
1486353774.03,36298,9.75,72492.8,-8.23,-36.13,-35.83,0,*55
1486353775.29,36299,9.75,72496.0,-8.23,-36.19,-35.83,0,*5E
1486353776.53,36300,9.75,72494.5,-8.23,-36.01,-35.77,0,*5D
1486353777.82,36301,9.75,72494.0,-8.23,-36.13,-35.83,0,*54
1486353779.08,36302,9.75,72494.0,-8.23,-36.19,-35.83,0,*5D
1486353780.36,36303,9.75,72494.3,-8.23,-36.13,-35.65,0,*5E
1486353781.62,36304,9.75,72496.0,-8.23,-36.13,-35.77,0,*5A
1486353782.88,36305,9.75,72496.0,-8.23,-36.19,-35.83,0,*5A
1486353784.15,36306,9.75,72498.0,-8.27,-36.25,-35.89,0,*58
1486353785.42,36307,9.75,72500.0,-8.27,-36.25,-36.01,0,*5A
1486353786.64,36308,9.75,72494.3,-8.25,-36.19,-35.89,0,*5B
1486353787.88,36309,9.75,72492.0,-8.25,-36.25,-36.01,0,*56
1486353789.1,36310,9.75,72498.0,-8.25,-36.19,-35.89,0,*52
1486353790.33,36311,9.75,72494.5,-8.27,-36.07,-35.71,0,*59
1486353791.59,36312,9.75,72498.3,-8.23,-36.19,-35.83,0,*5C
1486353792.8,36313,9.75,72496.8,-8.25,-36.01,-35.71,0,*5F
1486353794.03,36314,9.75,72494.8,-8.27,-36.07,-35.71,0,*5C
1486353795.29,36315,9.75,72496.5,-8.27,-35.89,-35.53,0,*58
1486353796.5,36316,9.75,72498.8,-8.25,-35.89,-35.71,0,*59
1486353797.74,36317,9.75,72498.3,-8.25,-36.07,-35.83,0,*50
1486353798.97,36318,9.75,72502.3,-8.25,-36.07,-35.65,0,*57
1486353800.22,36319,9.75,72498.3,-8.27,-36.07,-35.65,0,*54
1486353801.43,36320,9.75,72496.3,-8.25,-36.07,-35.71,0,*59
1486353802.67,36321,9.75,72502.5,-8.27,-36.19,-35.89,0,*52
1486353803.92,36322,9.75,72496.3,-8.25,-36.25,-35.89,0,*5C
1486353805.13,36323,9.75,72496.3,-8.25,-36.07,-35.71,0,*5A
1486353806.42,36324,9.75,72496.0,-8.27,-36.25,-35.83,0,*52
1486353807.68,36325,9.75,72496.3,-8.27,-36.37,-36.01,0,*59
1486353808.92,36326,9.75,72498.8,-8.25,-36.37,-36.01,0,*58
1486353810.18,36327,9.75,72496.8,-8.27,-36.37,-36.01,0,*5B
1486353811.45,36328,9.75,72498.8,-8.27,-36.25,-35.89,0,*54
1486353812.72,36329,9.75,72496.3,-8.27,-36.25,-35.89,0,*55
1486353813.96,36330,9.75,72498.3,-8.27,-36.19,-35.89,0,*52
1486353815.25,36331,9.75,72502.0,-8.27,-36.37,-35.83,0,*55
1486353816.49,36332,9.75,72502.0,-8.27,-36.43,-35.89,0,*5F
1486353817.73,36333,9.75,72500.8,-8.33,-36.13,-35.89,0,*5E
1486353818.99,36334,9.75,72502.0,-8.27,-36.01,-35.53,0,*58
1486353820.22,36335,9.75,72504.3,-8.29,-36.13,-35.71,0,*54
1486353821.43,36336,9.75,72506.5,-8.29,-36.07,-35.59,0,*58
1486353822.65,36337,9.75,72498.8,-8.33,-35.77,-35.29,0,*51
1486353823.89,36338,9.75,72500.8,-8.29,-35.71,-35.35,0,*5E
1486353825.1,36339,9.75,72502.3,-8.29,-35.71,-35.29,0,*52
1486353826.34,36340,9.75,72498.5,-8.29,-35.71,-35.35,0,*51
1486353827.58,36341,9.75,72498.3,-8.29,-35.77,-35.53,0,*56
1486353828.79,36342,9.75,72500.3,-8.29,-35.71,-35.29,0,*5E
1486353830.01,36343,9.75,72498.0,-8.29,-35.71,-35.29,0,*5F
1486353831.21,36344,9.75,72498.0,-8.29,-35.59,-35.17,0,*5F
1486353832.45,36345,9.75,72498.0,-8.27,-35.71,-35.29,0,*57
1486353833.72,36346,9.75,72490.3,-8.27,-35.53,-35.23,0,*5E
1486353834.98,36347,9.75,72492.3,-8.27,-35.71,-35.41,0,*5B
1486353836.24,36348,9.75,72498.8,-8.27,-35.83,-35.47,0,*5F
1486353837.51,36349,9.75,72500.5,-8.27,-35.65,-35.23,0,*54
1486353838.76,36350,9.75,72498.3,-8.25,-35.53,-35.07,0,*5D
1486353839.99,36351,9.75,72500.8,-8.25,-35.47,-35.07,0,*59
1486353841.2,36352,9.75,72502.0,-8.25,-35.47,-35.13,0,*5F
1486353842.4,36353,9.75,72502.0,-8.25,-35.47,-35.13,0,*5E
1486353843.63,36354,9.75,72500.0,-8.25,-35.47,-35.07,0,*5C
1486353844.88,36355,9.75,72500.8,-8.25,-35.53,-35.07,0,*58
1486353846.11,36356,9.75,72502.3,-8.25,-35.47,-35.07,0,*5E
1486353847.39,36357,9.75,72496.8,-8.23,-35.41,-35.07,0,*5F
1486353848.6,36358,9.75,72500.5,-8.21,-35.17,-34.89,0,*56
1486353849.83,36359,9.75,72500.3,-8.21,-35.35,-34.89,0,*57
1486353851.11,36360,9.75,72500.5,-8.23,-35.35,-35.07,0,*58
1486353852.35,36361,9.75,72504.5,-8.21,-35.23,-35.01,0,*5A
1486353853.57,36362,9.75,72502.3,-8.21,-35.17,-34.83,0,*55
1486353854.82,36363,9.75,72504.3,-8.21,-35.01,-34.65,0,*5B
1486353856.06,36364,9.75,72504.0,-8.19,-35.01,-34.47,0,*57
1486353857.3,36365,9.75,72500.3,-8.17,-34.95,-34.59,0,*5B
1486353858.53,36366,9.75,72500.3,-8.17,-35.13,-34.65,0,*58
1486353859.82,36367,9.75,72498.0,-8.19,-35.35,-34.95,0,*5C
1486353861.07,36368,9.75,72502.8,-8.17,-35.35,-34.95,0,*5D
1486353862.33,36369,9.75,72496.8,-8.17,-35.35,-34.95,0,*5C
1486353863.57,36370,9.75,72502.3,-8.17,-35.35,-35.01,0,*58
1486353864.82,36371,9.75,72498.8,-8.15,-35.35,-34.89,0,*5A
1486353866.08,36372,9.75,72498.0,-8.15,-35.47,-35.07,0,*5B
1486353867.35,36373,9.75,72498.0,-8.15,-35.83,-35.47,0,*56
1486353868.6,36374,9.75,72498.0,-8.15,-35.71,-35.29,0,*54
1486353869.86,36375,9.75,72498.5,-8.15,-35.71,-35.23,0,*5F
1486353871.1,36376,9.75,72496.5,-8.15,-35.71,-35.47,0,*5E
1486353872.34,36377,9.75,72502.5,-8.15,-36.01,-35.47,0,*5B
1486353873.57,36378,9.75,72496.0,-8.15,-36.19,-35.71,0,*58
1486353874.84,36379,9.75,72496.8,-8.15,-36.07,-35.65,0,*53
1486353876.1,36380,9.75,72498.5,-8.15,-36.01,-35.65,0,*53
1486353877.36,36381,9.75,72496.3,-8.15,-36.07,-35.65,0,*54
1486353878.61,36382,9.75,72496.8,-8.17,-36.25,-35.89,0,*57
1486353879.85,36383,9.75,72500.0,-8.17,-36.43,-35.95,0,*5B
1486353881.12,36384,9.75,72496.0,-8.17,-36.25,-35.95,0,*5C
1486353882.37,36385,9.75,72500.3,-8.17,-36.25,-35.89,0,*50
1486353883.64,36386,9.75,72498.5,-8.19,-36.25,-35.89,0,*5D
1486353884.89,36387,9.75,72500.5,-8.17,-36.25,-35.89,0,*52
1486353886.11,36388,9.75,72496.5,-8.17,-36.31,-35.89,0,*58
1486353887.37,36389,9.75,72496.5,-8.19,-36.13,-35.77,0,*56
1486353888.64,36390,9.75,72494.0,-8.19,-36.25,-35.89,0,*5A
1486353889.86,36391,9.75,72492.3,-8.17,-36.31,-35.77,0,*51
1486353891.11,36392,9.75,72494.0,-8.19,-36.31,-35.89,0,*5D
1486353892.37,36393,9.75,72496.5,-8.19,-36.25,-35.77,0,*58
1486353893.61,36394,9.75,72494.8,-8.19,-36.31,-35.71,0,*5C
1486353894.85,36395,9.75,72492.5,-8.19,-36.31,-35.89,0,*5A
1486353896.12,36396,9.75,72496.8,-8.19,-36.25,-35.77,0,*5D
1486353897.36,36397,9.75,72494.3,-8.19,-36.31,-35.89,0,*58
1486353898.59,36398,9.75,72490.8,-8.17,-36.43,-35.89,0,*5C
1486353899.79,36399,9.75,72492.3,-8.17,-36.43,-36.07,0,*58
1486353901.05,36400,9.75,72488.8,-8.19,-36.49,-36.07,0,*5B
1486353902.34,36401,9.75,72490.8,-8.19,-36.49,-35.95,0,*52
1486353903.58,36402,9.75,72492.8,-8.21,-36.61,-36.19,0,*57
1486353904.82,36403,9.75,72494.3,-8.21,-36.55,-36.13,0,*5B
1486353906.05,36404,9.75,72494.5,-8.21,-36.55,-36.13,0,*5C
1486353907.32,36405,9.75,72494.3,-8.21,-36.61,-36.13,0,*5A
1486353908.56,36406,9.75,72496.0,-8.23,-36.55,-36.01,0,*5F
1486353909.85,36407,9.75,72492.5,-8.19,-36.49,-35.95,0,*54
1486353911.07,36408,9.75,72488.3,-8.21,-36.55,-36.01,0,*53
1486353912.32,36409,9.75,72490.0,-8.23,-36.55,-36.01,0,*50
1486353913.56,36410,9.75,72488.3,-8.21,-36.19,-35.83,0,*5B
1486353914.8,36411,9.75,72492.8,-8.21,-36.49,-36.01,0,*56
1486353916.04,36412,9.75,72498.0,-8.23,-36.55,-36.01,0,*5A
1486353917.29,36413,9.75,72498.5,-8.23,-36.55,-36.01,0,*5B
1486353918.55,36414,9.75,72496.5,-8.23,-36.49,-36.01,0,*51
1486353919.85,36415,9.75,72500.0,-8.23,-36.49,-35.95,0,*5E
1486353921.14,36416,9.75,72498.8,-8.23,-36.37,-35.95,0,*54
1486353922.43,36417,9.75,72498.3,-8.23,-36.49,-35.83,0,*5B
1486353923.7,36418,9.75,72502.3,-8.23,-36.55,-35.95,0,*5E
1486353924.99,36419,9.75,72500.0,-8.23,-36.37,-35.95,0,*5B
1486353926.28,36420,9.75,72506.3,-8.23,-36.49,-35.83,0,*5F
1486353927.57,36421,9.75,72504.8,-8.23,-36.49,-35.83,0,*5E
1486353928.84,36422,9.75,72498.8,-8.21,-36.37,-35.83,0,*56
1486353930.13,36423,9.75,72502.5,-8.23,-36.49,-35.95,0,*5B
1486353931.4,36424,9.75,72500.0,-8.23,-36.55,-35.95,0,*51
1486353932.7,36425,9.75,72498.5,-8.23,-36.49,-35.95,0,*5D
1486353933.99,36426,9.75,72502.0,-8.23,-36.49,-35.95,0,*5E
1486353935.23,36427,9.75,72504.0,-8.25,-36.31,-35.83,0,*51
1486353936.52,36428,9.75,72500.8,-8.23,-36.49,-35.83,0,*57
1486353937.78,36429,9.75,72502.0,-8.25,-36.25,-35.65,0,*52
1486353939.01,36430,9.75,72506.0,-8.25,-36.19,-35.53,0,*50
1486353940.25,36431,9.75,72504.5,-8.25,-35.89,-35.41,0,*58
1486353941.46,36432,9.75,72502.8,-8.25,-35.89,-35.29,0,*55
1486353942.69,36433,9.75,72506.0,-8.25,-35.89,-35.41,0,*5A
1486353943.98,36434,9.75,72504.3,-8.23,-35.83,-35.35,0,*52
1486353945.22,36435,9.75,72502.8,-8.23,-35.77,-35.17,0,*58
1486353946.45,36436,9.75,72500.0,-8.21,-35.77,-35.23,0,*5E
1486353947.7,36437,9.75,72502.3,-8.23,-35.65,-35.17,0,*59
1486353948.96,36438,9.75,72502.3,-8.21,-35.65,-35.07,0,*55
1486353950.19,36439,9.75,72502.8,-8.21,-35.65,-35.17,0,*55
1486353951.42,36440,9.75,72498.3,-8.21,-35.77,-35.35,0,*58
1486353952.68,36441,9.75,72502.3,-8.21,-35.83,-35.23,0,*55
1486353953.91,36442,9.75,72500.5,-8.21,-35.65,-35.17,0,*59
1486353955.19,36443,9.75,72498.3,-8.19,-35.53,-34.95,0,*5D
1486353956.44,36444,9.75,72498.5,-8.17,-35.41,-34.83,0,*50
1486353957.71,36445,9.75,72498.8,-8.19,-35.41,-34.95,0,*58
1486353958.94,36446,9.75,72494.0,-8.19,-35.59,-35.17,0,*59
1486353960.16,36447,9.75,72494.0,-8.17,-35.77,-35.29,0,*57
1486353961.39,36448,9.75,72490.0,-8.17,-36.07,-35.53,0,*51
1486353962.63,36449,9.75,72490.0,-8.19,-35.77,-35.13,0,*5E
1486353963.9,36450,9.75,72494.3,-8.17,-35.95,-35.41,0,*53
1486353965.12,36451,9.75,72492.0,-8.17,-36.13,-35.59,0,*56
1486353966.37,36452,9.75,72492.8,-8.17,-36.25,-35.77,0,*5C
1486353967.61,36453,9.75,72492.5,-8.17,-36.25,-35.71,0,*5B
1486353968.82,36454,9.75,72496.8,-8.17,-36.31,-35.77,0,*5F
1486353970.04,36455,9.75,72498.0,-8.17,-36.43,-35.77,0,*5B
1486353971.27,36456,9.75,72496.3,-8.17,-36.49,-36.07,0,*56
1486353972.54,36457,9.75,72502.5,-8.17,-36.49,-35.95,0,*5F
1486353973.76,36458,9.75,72496.3,-8.17,-36.43,-35.89,0,*57
1486353975.0,36459,9.75,72496.0,-8.19,-36.43,-35.77,0,*59
1486353976.25,36460,9.75,72494.3,-8.19,-36.43,-35.89,0,*52
1486353977.49,36461,9.75,72496.8,-8.19,-36.43,-35.89,0,*53
1486353978.73,36462,9.75,72498.0,-8.19,-36.31,-35.71,0,*52
1486353980.01,36463,9.75,72498.0,-8.19,-36.13,-35.53,0,*53
1486353981.25,36464,9.75,72502.3,-8.19,-36.31,-35.77,0,*52
1486353982.53,36465,9.75,72496.8,-8.19,-36.25,-35.53,0,*50
1486353983.81,36466,9.75,72498.3,-8.19,-36.13,-35.53,0,*56
1486353985.07,36467,9.75,72498.5,-8.19,-36.25,-35.59,0,*58
1486353986.32,36468,9.75,72496.0,-8.19,-36.43,-35.77,0,*5B
1486353987.56,36469,9.75,72498.8,-8.17,-36.49,-35.89,0,*5F
1486353988.82,36470,9.75,72500.8,-8.19,-36.25,-35.59,0,*5E
1486353990.08,36471,9.75,72500.0,-8.17,-35.95,-35.41,0,*50
1486353991.34,36472,9.75,72498.0,-8.19,-36.13,-35.71,0,*53
1486353992.58,36473,9.75,72492.5,-8.19,-36.43,-35.89,0,*50
1486353993.82,36474,9.75,72492.8,-8.19,-36.31,-35.77,0,*53
1486353995.06,36475,9.75,72494.3,-8.19,-36.43,-35.71,0,*51
1486353996.29,36476,9.75,72498.5,-8.19,-36.43,-35.71,0,*52
1486353997.54,36477,9.75,72496.0,-8.19,-36.43,-35.89,0,*54
1486353998.81,36478,9.75,72494.0,-8.19,-36.49,-35.89,0,*51
1486354000.05,36479,9.75,72498.3,-8.19,-36.43,-35.77,0,*5B
1486354001.33,36480,9.75,72498.3,-8.19,-36.25,-35.53,0,*5B
1486354002.59,36481,9.75,72496.3,-8.17,-36.13,-35.41,0,*52
1486354003.85,36482,9.75,72496.3,-8.19,-36.07,-35.41,0,*5A
1486354005.1,36483,9.75,72502.5,-8.19,-36.13,-35.59,0,*57
1486354006.39,36484,9.75,72498.3,-8.19,-36.25,-35.53,0,*5F
1486354007.65,36485,9.75,72496.0,-8.17,-36.13,-35.53,0,*55
1486354008.93,36486,9.75,72498.5,-8.19,-36.25,-35.41,0,*5E
1486354010.17,36487,9.75,72498.0,-8.17,-36.07,-35.41,0,*51
1486354011.41,36488,9.75,72500.3,-8.17,-36.07,-35.53,0,*5D
1486354012.64,36489,9.75,72496.0,-8.19,-36.31,-35.71,0,*57
1486354013.86,36490,9.75,72498.8,-8.17,-36.43,-35.77,0,*52
1486354015.08,36491,9.75,72496.5,-8.17,-36.43,-35.89,0,*52
1486354016.33,36492,9.75,72498.3,-8.17,-36.13,-35.53,0,*53
1486354017.61,36493,9.75,72498.5,-8.19,-36.13,-35.35,0,*5C
1486354018.87,36494,9.75,72494.3,-8.17,-36.13,-35.35,0,*55
1486354020.13,36495,9.75,72496.5,-8.17,-36.25,-35.41,0,*52
1486354021.39,36496,9.75,72496.3,-8.15,-36.37,-35.71,0,*53
1486354022.61,36497,9.75,72494.0,-8.17,-36.43,-35.89,0,*54
1486354023.85,36498,9.75,72496.0,-8.17,-36.49,-35.77,0,*50
1486354025.08,36499,9.75,72498.5,-8.17,-36.55,-35.89,0,*5D
1486354026.34,36500,9.75,72498.8,-8.19,-36.49,-35.77,0,*5E
1486354027.56,36501,9.75,72498.8,-8.17,-36.67,-35.89,0,*5C
1486354028.81,36502,9.75,72496.3,-8.17,-36.67,-35.95,0,*52
1486354030.07,36503,9.75,72498.5,-8.19,-36.49,-35.77,0,*5D
1486354031.28,36504,9.75,72498.5,-8.17,-36.43,-35.71,0,*58
1486354032.5,36505,9.75,72496.0,-8.17,-36.43,-35.77,0,*5F
1486354033.72,36506,9.75,72494.5,-8.17,-36.55,-35.89,0,*5A
1486354034.97,36507,9.75,72494.8,-8.19,-36.55,-35.89,0,*55
1486354036.21,36508,9.75,72498.0,-8.17,-36.85,-36.25,0,*5C
1486354037.47,36509,9.75,72494.8,-8.19,-36.85,-36.13,0,*56
1486354038.7,36510,9.75,72494.5,-8.19,-36.67,-36.07,0,*57
1486354039.97,36511,9.75,72494.5,-8.19,-36.73,-35.95,0,*5B
1486354041.25,36512,9.75,72498.3,-8.19,-36.91,-36.13,0,*59
1486354042.49,36513,9.75,72498.5,-8.19,-36.67,-36.07,0,*54
1486354043.76,36514,9.75,72492.0,-8.19,-36.73,-35.95,0,*5E
1486354045.02,36515,9.75,72498.5,-8.21,-36.79,-36.13,0,*53
1486354046.26,36516,9.75,72500.0,-8.21,-36.55,-35.83,0,*54
1486354047.51,36517,9.75,72498.3,-8.21,-36.55,-35.95,0,*52
1486354048.75,36518,9.75,72496.0,-8.21,-36.73,-35.95,0,*59
1486354050.02,36519,9.75,72502.5,-8.21,-36.79,-35.95,0,*52
1486354051.26,36520,9.75,72500.0,-8.21,-36.97,-36.13,0,*55
1486354052.5,36521,9.75,72502.3,-8.21,-36.97,-36.13,0,*54
1486354053.72,36522,9.75,72500.5,-8.21,-36.73,-36.01,0,*5E
1486354054.94,36523,9.75,72502.8,-8.21,-36.73,-36.01,0,*5F
1486354056.19,36524,9.75,72498.5,-8.21,-36.79,-36.01,0,*52
1486354057.45,36525,9.75,72500.0,-8.23,-36.79,-36.01,0,*51
1486354058.67,36526,9.75,72498.8,-8.21,-36.73,-36.01,0,*5A
1486354059.94,36527,9.75,72494.3,-8.23,-36.79,-36.01,0,*53
1486354061.18,36528,9.75,72496.8,-8.21,-36.79,-36.01,0,*5E
1486354062.44,36529,9.75,72492.0,-8.23,-36.79,-36.01,0,*5D
1486354063.73,36530,9.75,72490.5,-8.23,-36.61,-35.83,0,*55
1486354065.02,36531,9.75,72492.3,-8.23,-36.61,-35.83,0,*54
1486354066.29,36532,9.75,72494.5,-8.23,-36.73,-35.95,0,*53
1486354067.56,36533,9.75,72496.3,-8.23,-36.73,-35.95,0,*52
1486354068.8,36534,9.75,72492.5,-8.23,-36.55,-35.59,0,*51
1486354070.06,36535,9.75,72490.3,-8.23,-36.37,-35.47,0,*5B
1486354071.32,36536,9.75,72492.0,-8.23,-36.19,-35.41,0,*52
1486354072.6,36537,9.75,72492.3,-8.23,-36.49,-35.65,0,*50
1486354073.84,36538,9.75,72492.0,-8.21,-36.55,-35.65,0,*50
1486354075.06,36539,9.75,72492.8,-8.21,-36.55,-35.77,0,*52
1486354076.3,36540,9.75,72494.5,-8.23,-36.55,-35.77,0,*5E
1486354077.57,36541,9.75,72498.8,-8.23,-36.73,-35.83,0,*50
1486354078.82,36542,9.75,72496.5,-8.21,-36.73,-35.83,0,*51
1486354080.05,36543,9.75,72496.0,-8.21,-36.55,-35.65,0,*5C
1486354081.3,36544,9.75,72496.8,-8.23,-36.73,-35.77,0,*5E
1486354082.57,36545,9.75,72498.5,-8.23,-36.55,-35.83,0,*50
1486354083.83,36546,9.75,72496.3,-8.23,-36.73,-35.83,0,*57
1486354085.05,36547,9.75,72496.5,-8.21,-36.55,-35.59,0,*57
1486354086.28,36548,9.75,72498.3,-8.23,-36.31,-35.47,0,*57
1486354087.52,36549,9.75,72496.3,-8.21,-36.49,-35.47,0,*5B
1486354088.79,36550,9.75,72494.8,-8.23,-36.49,-35.47,0,*51
1486354090.05,36551,9.75,72494.5,-8.23,-36.31,-35.41,0,*59
1486354091.31,36552,9.75,72498.5,-8.23,-36.31,-35.35,0,*59
1486354092.57,36553,9.75,72496.3,-8.23,-36.31,-35.41,0,*5B
1486354093.8,36554,9.75,72496.3,-8.21,-36.19,-35.35,0,*57
1486354095.04,36555,9.75,72496.8,-8.21,-36.49,-35.59,0,*59
1486354096.3,36556,9.75,72494.8,-8.23,-36.55,-35.65,0,*5A
1486354097.54,36557,9.75,72494.5,-8.21,-36.61,-35.77,0,*5D
1486354098.79,36558,9.75,72490.8,-8.21,-36.61,-35.77,0,*52
1486354100.03,36559,9.75,72496.0,-8.23,-36.73,-35.77,0,*52
1486354101.3,36560,9.75,72494.8,-8.21,-36.79,-35.83,0,*5B
1486354102.53,36561,9.75,72492.0,-8.21,-36.73,-35.65,0,*58
1486354103.76,36562,9.75,72494.8,-8.21,-36.73,-35.77,0,*58
1486354105.04,36563,9.75,72494.0,-8.23,-36.79,-35.83,0,*5A
1486354106.3,36564,9.75,72490.0,-8.23,-36.55,-35.65,0,*5B